Tampa, FL

11:41 AM EST on December 05, 2016 (GMT -0500)
Tampa International

Weather History for KTPA - October, 2012

Change the Weather History Date:

Tuesday, October 23, 2012

  Actual Average Record
Temperature  
Mean Temperature 76 °F 74 °F  
Max Temperature 85 °F 83 °F 89 °F (1985)
Min Temperature 66 °F 66 °F 47 °F (1898)
Degree Days  
Heating Degree Days 0 0  
Month to date heating degree days 0 0  
Since 1 July heating degree days 0 0  
Cooling Degree Days 11 10  
Month to date cooling degree days 310 281  
Year to date cooling degree days 3739 3297  
Growing Degree Days 25 (Base 50)    
Moisture  
Dew Point 62 °F    
Average Humidity 64    
Maximum Humidity 81    
Minimum Humidity 46    
Precipitation  
Precipitation 0.00 in 0.05 in 2.13 in (1897)
Month to date precipitation 3.10 1.84  
Year to date precipitation 53.63 41.86  
Sea Level Pressure  
Sea Level Pressure 30.03 in    
Wind  
Wind Speed 7 mph (NE)    
Max Wind Speed 13 mph    
Max Gust Speed 22 mph    
Visibility 10 miles    
Events      
T = Trace of Precipitation, MM = Missing Value Source: NWS Daily Summary

Daily Weather History Graph

Daily Weather History Graph

Search for Another Location

Airport or City:

Trip Planner

Search our weather history database for the weather conditions in past years. The results will help you decide how hot, cold, wet, or windy it might be!

Date:

Astronomy

Oct. 23, 2012 Rise Set
Actual Time 7:35 AM EDT 6:52 PM EDT
Civil Twilight 7:11 AM EDT 7:16 PM EDT
Nautical Twilight 6:44 AM EDT 7:44 PM EDT
Astronomical Twilight 6:16 AM EDT 8:11 PM EDT
Moon 3:09 PM EDT (10/23) 1:56 AM EDT (10/23)
Length of Visible Light 12h 04m
Length of Day
11h 17m
Waxing Gibbous, 66% of the Moon is Illuminated
Oct 23
Waxing Gibbous
Oct 29
Full
Nov 6
Last Quarter
Nov 13
New
Nov 20
First Quarter

Hourly Weather History & Observations

Time (EDT) Temp. Heat Index Dew Point Humidity Pressure Visibility Wind Dir Wind Speed Gust Speed Precip Events Conditions
12:53 AM 71.1 °F - 60.1 °F 68% 30.07 in 10.0 mi NE 4.6 mph - N/A   Partly Cloudy
1:53 AM 69.8 °F - 60.8 °F 73% 30.06 in 10.0 mi NNE 6.9 mph - N/A   Clear
2:53 AM 68.0 °F - 61.0 °F 78% 30.05 in 10.0 mi NE 5.8 mph - N/A   Clear
3:53 AM 66.9 °F - 61.0 °F 81% 30.03 in 10.0 mi NNE 4.6 mph - N/A   Clear
4:53 AM 66.9 °F - 61.0 °F 81% 30.02 in 10.0 mi NE 5.8 mph - N/A   Clear
5:53 AM 66.0 °F - 61.0 °F 84% 30.03 in 10.0 mi NNE 5.8 mph - N/A   Clear
6:53 AM 66.0 °F - 60.1 °F 81% 30.04 in 10.0 mi NE 4.6 mph - N/A   Partly Cloudy
7:53 AM 66.0 °F - 60.1 °F 81% 30.04 in 10.0 mi NE 4.6 mph - N/A   Partly Cloudy
8:53 AM 70.0 °F - 61.0 °F 73% 30.06 in 10.0 mi NE 4.6 mph - N/A   Partly Cloudy
9:53 AM 75.0 °F - 61.0 °F 62% 30.05 in 10.0 mi ENE 8.1 mph - N/A   Partly Cloudy
10:53 AM 80.6 °F 81.5 °F 60.8 °F 51% 30.05 in 10.0 mi ENE 8.1 mph 17.3 mph N/A   Partly Cloudy
11:53 AM 82.0 °F 82.1 °F 59.0 °F 45% 30.04 in 10.0 mi NE 9.2 mph - N/A   Partly Cloudy
12:53 PM 82.4 °F 82.9 °F 60.8 °F 48% 30.03 in 10.0 mi NE 6.9 mph 17.3 mph N/A   Scattered Clouds
1:53 PM 82.9 °F 83.7 °F 62.1 °F 49% 30.01 in 10.0 mi ENE 8.1 mph - N/A   Mostly Cloudy
2:53 PM 82.9 °F 84.0 °F 63.0 °F 51% 29.99 in 10.0 mi NE 11.5 mph 17.3 mph N/A   Mostly Cloudy
3:53 PM 84.0 °F 84.9 °F 63.0 °F 49% 29.98 in 10.0 mi ENE 8.1 mph 16.1 mph N/A   Mostly Cloudy
4:53 PM 82.9 °F 83.7 °F 62.1 °F 49% 29.97 in 10.0 mi ENE 12.7 mph 21.9 mph N/A   Mostly Cloudy
5:53 PM 82.9 °F 83.7 °F 62.1 °F 49% 29.98 in 10.0 mi ENE 8.1 mph 16.1 mph N/A   Scattered Clouds
6:53 PM 81.0 °F 82.2 °F 63.0 °F 54% 29.99 in 10.0 mi NE 5.8 mph - N/A   Scattered Clouds
7:53 PM 79.0 °F - 63.0 °F 58% 30.01 in 10.0 mi ENE 6.9 mph - N/A   Partly Cloudy
8:53 PM 78.1 °F - 63.0 °F 60% 30.03 in 10.0 mi ENE 6.9 mph - N/A   Mostly Cloudy
9:53 PM 75.9 °F - 63.0 °F 64% 30.04 in 10.0 mi NE 6.9 mph - N/A   Clear
10:53 PM 73.9 °F - 62.1 °F 66% 30.05 in 10.0 mi ENE 3.5 mph - N/A   Partly Cloudy
11:53 PM 72.0 °F - 62.1 °F 71% 30.04 in 10.0 mi Calm Calm - N/A   Clear